Franklin, NC

5:53 PM EST on February 27, 2017 (GMT -0500)
Franklin

Weather History for K1A5 - May, 2014

Change the Weather History Date:

Friday, May 30, 2014

  Actual Average (KTOC) Record (KTOC)
Temperature  
Mean Temperature 68 °F -  
Max Temperature 79 °F 81 °F 88 °F (2014)
Min Temperature 58 °F 59 °F 62 °F (2015)
Cooling Degree Days 4    
Growing Degree Days 18 (Base 50)    
Moisture  
Dew Point 62 °F    
Average Humidity 93    
Maximum Humidity 100    
Minimum Humidity 51    
Precipitation  
Precipitation 0.51 in - - ()
Sea Level Pressure  
Sea Level Pressure 30.16 in    
Wind  
Wind Speed 1 mph (WNW)    
Max Wind Speed 14 mph    
Max Gust Speed 22 mph    
Visibility 6 miles    
Events Rain    
Averages and records for this station are not official NWS values.
T = Trace of Precipitation, MM = Missing Value Source: NWS Daily Summary

Daily Weather History Graph

Daily Weather History Graph

Search for Another Location

Airport or City:

Trip Planner

Search our weather history database for the weather conditions in past years. The results will help you decide how hot, cold, wet, or windy it might be!

Date:

Astronomy

May. 30, 2014 Rise Set
Actual Time 6:21 AM EDT 8:41 PM EDT
Civil Twilight 5:51 AM EDT 9:10 PM EDT
Nautical Twilight 5:16 AM EDT 9:46 PM EDT
Astronomical Twilight 4:36 AM EDT 10:26 PM EDT
Moon 8:02 AM EDT (5/30) 10:20 PM EDT (5/30)
Length of Visible Light 15h 19m
Length of Day
14h 20m
Waxing Crescent, 4% of the Moon is Illuminated
May 30
Waxing Crescent
Jun 5
First Quarter
Jun 13
Full
Jun 19
Last Quarter
Jun 27
New

Hourly Weather History & Observations

Time (EDT) Temp. Dew Point Humidity Pressure Visibility Wind Dir Wind Speed Gust Speed Precip Events Conditions
12:15 AM 61.2 °F 61.2 °F 100% 30.16 in 5.0 mi Calm Calm - N/A   Scattered Clouds
12:35 AM 61.0 °F 61.0 °F 100% 30.16 in 3.0 mi Calm Calm - N/A   Mostly Cloudy
12:55 AM 61.2 °F 61.2 °F 100% 30.16 in 4.0 mi Calm Calm - N/A   Overcast
1:15 AM 61.0 °F 61.0 °F 100% 30.16 in 4.0 mi Calm Calm - N/A   Overcast
1:35 AM 60.8 °F 60.8 °F 100% 30.16 in 5.0 mi Calm Calm - N/A   Overcast
1:55 AM 60.8 °F 60.8 °F 100% 30.15 in 7.0 mi Calm Calm - N/A   Overcast
2:15 AM 61.0 °F 61.0 °F 100% 30.15 in 1.2 mi Calm Calm - N/A   Overcast
2:35 AM 61.0 °F 61.0 °F 100% 30.15 in 1.2 mi Calm Calm - N/A   Overcast
2:55 AM 61.0 °F 61.0 °F 100% 30.15 in 1.8 mi Calm Calm - N/A   Overcast
3:15 AM 61.0 °F 61.0 °F 100% 30.15 in 4.0 mi Calm Calm - N/A   Overcast
3:35 AM 61.0 °F 61.0 °F 100% 30.15 in 4.0 mi Calm Calm - N/A   Overcast
3:55 AM 60.4 °F 60.4 °F 100% 30.15 in 5.0 mi Calm Calm - N/A   Overcast
4:15 AM 60.3 °F 60.3 °F 100% 30.15 in 5.0 mi Calm Calm - N/A   Overcast
4:35 AM 59.9 °F 59.9 °F 100% 30.15 in 4.0 mi Calm Calm - N/A   Overcast
4:55 AM 59.0 °F 59.0 °F 100% 30.15 in 4.0 mi Calm Calm - N/A   Scattered Clouds
5:15 AM 58.6 °F 58.6 °F 100% 30.15 in 3.0 mi Calm Calm - N/A   Overcast
5:35 AM 58.6 °F 58.6 °F 100% 30.15 in 3.0 mi Calm Calm - N/A   Overcast
5:55 AM 59.0 °F 59.0 °F 100% 30.15 in 4.0 mi Calm Calm - N/A   Overcast
6:15 AM 59.0 °F 59.0 °F 100% 30.15 in 1.8 mi Calm Calm - N/A   Overcast
6:35 AM 59.4 °F 59.4 °F 100% 30.15 in 1.0 mi Calm Calm - N/A   Overcast
6:55 AM 59.2 °F 59.2 °F 100% 30.15 in 2.0 mi Calm Calm - N/A   Overcast
7:15 AM 59.4 °F 59.4 °F 100% 30.15 in 0.8 mi Calm Calm - N/A   Overcast
7:35 AM 59.2 °F 59.2 °F 100% 30.16 in 1.2 mi Calm Calm - N/A   Overcast
7:55 AM 59.2 °F 59.2 °F 100% 30.16 in 2.5 mi Calm Calm - N/A   Overcast
8:15 AM 59.4 °F 59.4 °F 100% 30.16 in 2.5 mi Calm Calm - N/A   Overcast
8:35 AM 59.5 °F 59.5 °F 100% 30.16 in 1.5 mi Calm Calm - N/A   Overcast
8:55 AM 59.9 °F 59.9 °F 100% 30.16 in 2.0 mi Calm Calm - N/A   Overcast
9:15 AM 60.3 °F 60.3 °F 100% 30.17 in 4.0 mi Calm Calm - N/A   Overcast
9:35 AM 60.4 °F 60.4 °F 100% 30.17 in 7.0 mi Calm Calm - N/A   Overcast
9:55 AM 61.3 °F 61.3 °F 100% 30.17 in 7.0 mi Calm Calm - N/A   Overcast
10:15 AM 62.8 °F 62.8 °F 100% 30.17 in 10.0 mi Calm Calm - N/A   Overcast
10:35 AM 63.7 °F 63.3 °F 99% 30.17 in 10.0 mi Calm Calm - N/A   Overcast
10:55 AM 65.8 °F 63.1 °F 91% 30.16 in 10.0 mi Calm Calm - N/A   Scattered Clouds
11:15 AM 67.5 °F 62.1 °F 83% 30.17 in 10.0 mi Calm Calm - N/A   Clear
11:35 AM 70.0 °F 62.4 °F 77% 30.17 in 10.0 mi Calm Calm - N/A   Clear
11:55 AM 71.8 °F 62.1 °F 71% 30.16 in 10.0 mi Calm Calm - N/A   Clear
12:15 PM 73.8 °F 62.6 °F 68% 30.16 in 10.0 mi Calm Calm - N/A   Clear
12:35 PM 74.8 °F 60.6 °F 61% 30.15 in 10.0 mi Calm Calm - N/A   Clear
12:55 PM 76.8 °F 60.6 °F 57% 30.15 in 10.0 mi WNW 4.6 mph - N/A   Clear
1:15 PM 77.9 °F 60.8 °F 56% 30.14 in 10.0 mi West 4.6 mph - N/A   Clear
1:35 PM 77.7 °F 60.6 °F 55% 30.13 in 10.0 mi NW 3.5 mph - N/A   Clear
1:55 PM 79.3 °F 61.7 °F 55% 30.12 in 10.0 mi WNW 4.6 mph - N/A   Clear
2:15 PM 79.5 °F 59.7 °F 51% 30.14 in 10.0 mi SE 11.5 mph 17.3 mph N/A   Scattered Clouds
2:35 PM 68.7 °F 59.2 °F 72% 30.16 in 10.0 mi East 13.8 mph 21.9 mph 0.01 in Rain Rain
2:55 PM 64.2 °F 63.1 °F 96% 30.16 in 1.0 mi Calm Calm - 0.46 in Rain Heavy Rain
3:15 PM 64.4 °F 64.4 °F 100% 30.16 in 7.0 mi West 4.6 mph - 0.02 in Rain Light Rain
3:35 PM 64.8 °F 64.8 °F 100% 30.16 in 10.0 mi WNW 3.5 mph - 0.02 in Rain Light Rain
3:55 PM 64.6 °F 64.6 °F 100% 30.16 in 4.0 mi Calm Calm - 0.04 in Rain Light Rain
4:15 PM 64.4 °F 64.4 °F 100% 30.16 in 10.0 mi ENE 3.5 mph - 0.01 in   Scattered Clouds
5:15 PM 65.8 °F 65.7 °F 99% 30.15 in 10.0 mi Calm Calm - N/A   Clear
5:35 PM 66.4 °F 63.7 °F 91% 30.14 in 10.0 mi Calm Calm - N/A   Clear
5:55 PM 67.1 °F 64.2 °F 90% 30.15 in 10.0 mi Calm Calm - N/A   Scattered Clouds
6:35 PM 67.1 °F 63.7 °F 89% 30.14 in 10.0 mi Calm Calm - N/A   Scattered Clouds
6:55 PM 66.7 °F 64.6 °F 93% 30.14 in 10.0 mi West 3.5 mph - N/A   Clear
7:15 PM 66.6 °F 65.8 °F 98% 30.15 in 10.0 mi Calm Calm - N/A   Scattered Clouds
7:35 PM 66.2 °F 66.2 °F 100% 30.15 in 10.0 mi Calm Calm - N/A   Scattered Clouds
7:55 PM 66.2 °F 66.2 °F 100% 30.16 in 10.0 mi Calm Calm - N/A   Scattered Clouds
8:15 PM 65.3 °F 65.3 °F 100% 30.16 in 7.0 mi Calm Calm - N/A   Clear
8:35 PM 64.4 °F 64.4 °F 100% 30.16 in 10.0 mi Calm Calm - N/A   Clear
8:55 PM 63.1 °F 63.1 °F 100% 30.16 in 10.0 mi Calm Calm - N/A   Scattered Clouds
9:15 PM 63.3 °F 63.3 °F 100% 30.15 in 7.0 mi Calm Calm - N/A   Scattered Clouds
9:55 PM 62.1 °F 62.1 °F 100% 30.16 in 4.0 mi Calm Calm - N/A   Clear
10:15 PM 61.5 °F 61.5 °F 100% 30.16 in 4.0 mi Calm Calm - N/A   Scattered Clouds
10:35 PM 61.2 °F 61.2 °F 100% 30.17 in 7.0 mi Calm Calm - N/A   Mostly Cloudy
10:55 PM 61.0 °F 61.0 °F 100% 30.18 in 7.0 mi West 4.6 mph - N/A   Overcast
11:15 PM 60.3 °F 60.3 °F 100% 30.18 in 7.0 mi Calm Calm - N/A   Overcast
11:35 PM 60.4 °F 60.4 °F 100% 30.18 in 7.0 mi Calm Calm - N/A   Overcast
11:55 PM 60.3 °F 60.3 °F 100% 30.18 in 7.0 mi Calm Calm - N/A   Overcast